Regional Weather Roundup
Issued by NWS

Home | Current Version | Previous Version | Graphics & Text | Print | Product List | Glossary On
Versions: 1 2 3 4 5 6 7 8 9 10 11 12 13 14 15 16 17 18 19 20 21 22 23 24 25 26 27 28 29 30 31 32 33 34 35 36 37 38 39 40 41 42 43 44 45 46 47 48 49 50
000
ASUS43 KTOP 280459
RWRKS

WEATHER ROUNDUP FOR KANSAS
NATIONAL WEATHER SERVICE GOODLAND KS
1100 PM CST SAT DEC 27 2014

NOTE:  "FAIR" INDICATES FEW OR NO CLOUDS BELOW 12,000 FEET WITH NO
SIGNIFICANT WEATHER AND/OR OBSTRUCTIONS TO VISIBILITY.

KSZ001>006-013>018-027>032-041>047-280600-
NORTHWEST KANSAS

CITY           SKY/WX    TMP DP  RH WIND       PRES   REMARKS
GOODLAND       PTCLDY    16   9  74 SW10      30.15S WCI   4
HAYS           CLEAR     16   3  57 SW3       30.24S
HILL CITY      CLEAR     14   9  80 W9        30.22F
RUSSELL        CLEAR     17  14  88 SW8       30.24S
$$

KSZ061>065-074>080-084>089-280600-
SOUTHWEST KANSAS

CITY           SKY/WX    TMP DP  RH WIND       PRES   REMARKS
DODGE CITY     CLEAR     22  15  75 W7        30.24S
ELKHART          N/A     22  11  63 SW8         N/A
GARDEN CITY    CLEAR     17  13  84 W3        30.22F
GREAT BEND     CLEAR     18  10  73 W6        30.27S
LIBERAL        CLEAR     19  10  68 SW5       30.25S
$$

KSZ066>073-081>083-090>101-280600-
SOUTHEAST KANSAS

CITY           SKY/WX    TMP DP  RH WIND       PRES   REMARKS
CHANUTE        CLEAR     24  19  81 NW5       30.30S
COFFEYVILLE    CLEAR     25  19  78 CALM      30.33R
HUTCHINSON     CLEAR     17  12  80 NW3       30.28F
MEDICINE LODGE   N/A     20  16  84 CALM      30.30R
NEWTON         CLEAR     21  12  68 CALM      30.29S
PARSONS        CLEAR     23  19  85 N5        30.32R
WICHITA INTL   CLEAR     24  17  74 NW5       30.30R
WICHITA JABRA  CLEAR     24  16  71 NW3       30.29S
WINFIELD       CLEAR     23  19  85 CALM      30.31S
$$

KSZ007>012-019>026-033>040-048>060-102>105-280600-
NORTHEAST KANSAS

CITY           SKY/WX    TMP DP  RH WIND       PRES   REMARKS
CONCORDIA      CLEAR     20  15  81 SW6       30.24F
EMPORIA        CLEAR     18  15  88 SW5       30.29R
LAWRENCE       CLEAR     19  15  84 CALM      30.29S
MANHATTAN      CLEAR     18  16  92 CALM      30.29S
OLATHE IND     CLEAR     23  18  81 CALM      30.28S
OLATHE EXE     CLEAR     23  19  85 CALM      30.26S
SALINA         CLEAR     21  15  78 SW8       30.29S
TOPEKA BILLARD CLEAR     24  18  77 CALM      30.29S
TOPEKA FORBES  CLEAR     21  16  81 CALM      30.27S
$$



USA.gov is the U.S. government's official web portal to all federal, state and local government web resources and services.